Regional Weather Roundup
Issued by NWS

Home | Current Version | Previous Version | Text Only | Print | Product List | Glossary On
Versions: 1 2 3 4 5 6 7 8 9 10 11 12 13 14 15 16 17 18 19 20 21 22 23 24 25 26 27 28 29 30 31 32 33 34 35 36 37 38 39 40 41 42 43 44 45 46 47 48 49 50
000
ASUS43 KDMX 281406
RWRIA

WEATHER ROUNDUP FOR IOWA
NATIONAL WEATHER SERVICE DES MOINES IA
800 AM CST TUE FEB 28 2017

NOTE: "FAIR" INDICATES FEW OR NO CLOUDS BELOW 12,000 FEET WITH NO
SIGNIFICANT WEATHER AND/OR OBSTRUCTIONS TO VISIBILITY.

* - THESE STATIONS ARE NOT NWS STATIONS...THUS NOT UNDER NWS
QUALITY CONTROL.  THEY ALSO DO NOT REPORT WEATHER SUCH
AS PRECIPITATION OR FOG.

IAZ001>003-012>014-020>022-031>034-043>046-281500-
   NORTHWEST IOWA

CITY           SKY/WX    TMP DP  RH WIND       PRES   REMARKS
CARROLL *      CLOUDY    36  36 100 CALM      29.60S
CHEROKEE *     CLOUDY    33  32  96 N10       29.65R WCI  25
DENISON *      CLOUDY    36  34  93 CALM      29.59R
LE MARS *      CLOUDY    34  32  93 NE8       29.67R WCI  27
SHELDON *      CLOUDY    34  34 100 N16       29.64R WCI  23
SIOUX CITY     CLOUDY    37  31  78 N14       29.64R WCI  28
SPENCER        CLOUDY    33  31  92 N10       29.65S WCI  25
STORM LAKE *   CLOUDY    34  32  93 NE8       29.61S WCI  27
$$

IAZ055>058-069>071-079>083-090>094-281500-
   SOUTHWEST IOWA

CITY           SKY/WX    TMP DP  RH WIND       PRES   REMARKS
ATLANTIC *     FOG       41  41 100 SW7       29.60R VSB<1/4
AUDUBON *      CLOUDY    36  34  93 CALM      29.60R FOG
CLARINDA *     CLOUDY    54  52  94 SW7       29.63F
COUNCIL BLFS * CLOUDY    45  45 100 SW9       29.60R
CRESTON *      CLOUDY    52  52 100 SW12      29.62S
HARLAN  *      FOG       37  37 100 CALM      29.63R VSB<1/4
LAMONI         PTSUNNY   59  55  87 SW15      29.62R
RED OAK *      CLOUDY    50  45  81 SW9       29.61R
SHENANDOAH *   MOSUNNY   48  46  93 SW8       29.62S
$$

IAZ047>049-059>061-072>074-084-281500-
   CENTRAL IOWA

CITY           SKY/WX    TMP DP  RH WIND       PRES   REMARKS
AMES           CLOUDY    48  47  96 SE8       29.59F
ANKENY *       CLOUDY    52  48  87 S3        29.61F
BOONE *        SUNNY     41  41 100 CALM      29.59R
CHARITON *     MOSUNNY   57  55  94 S13       29.62R
DES MOINES     CLOUDY    54  49  83 SE5       29.60S
GRINNELL*      PTSUNNY   51  48  89 S10       29.64S
KNOXVILLE *    CLOUDY    55  54  94 S8        29.60S
MARSHALLTOWN   CLOUDY    47  46  97 SE7       29.60F
NEWTON *       CLOUDY    52  48  87 SE13      29.61F
PELLA *        CLOUDY    52  48  87 CALM      29.64R
PERRY *        PTSUNNY   47  45  91 S6        29.59S
$$

IAZ004>006-015-016-023>025-035-036-281500-
   NORTH CENTRAL IOWA

CITY           SKY/WX    TMP DP  RH WIND       PRES   REMARKS
ALGONA *       CLOUDY    36  36 100 NE5       29.64R WCI  32
CLARION *      CLOUDY    36  36 100 NE7       29.62R WCI  30
ESTHERVILLE    CLOUDY    30  30 100 N12       29.65F WCI  20
FORT DODGE *   CLOUDY    36  32  87 N6        29.63R WCI  31
MASON CITY     CLOUDY    36  34  92 CALM      29.66S FOG
FOREST CITY *  CLOUDY    36  36 100 E3        29.65R
WEBSTER CITY * CLOUDY    37  36  93 NE5       29.59S WCI  34
IOWA FALLS *   CLOUDY    39  38  95 NE3       29.63S
$$

IAZ007>011-017>019-026>030-037>042-050>054-066-281500-
   NORTHEAST IOWA

CITY           SKY/WX    TMP DP  RH WIND       PRES   REMARKS
CEDAR RAPIDS   PTSUNNY   51  50  96 S13       29.65F
CHARLES CITY * CLOUDY    37  37 100 E9        29.65S FOG     WCI  31
CLINTON *      CLOUDY    51  49  92 S14       29.72F
DECORAH *      LGT RAIN  39  39 100 E3G13     29.66F
DUBUQUE        CLOUDY    45  44  97 SE10      29.68F FOG
MONTICELLO *   CLOUDY    50  48  93 SE13      29.67F
OELWEIN *      CLOUDY    43  41  93 SE9       29.65S FOG
WATERLOO       CLOUDY    42  40  92 E5        29.63F FOG
$$

IAZ064-065-067-068-078-281500-
   EAST CENTRAL IOWA

CITY           SKY/WX    TMP DP  RH WIND       PRES   REMARKS
DAVENPORT      PTSUNNY   51  49  92 S17       29.72F
IOWA CITY      CLOUDY    52  49  89 S13       29.69F
MUSCATINE *    CLOUDY    54  50  87 SE8       29.71F
QUAD CITIES    CLOUDY    52  49  89 S12       29.72F
$$

IAZ062-063-075>077-085>089-095>099-281500-
   SOUTHEAST IOWA

CITY           SKY/WX    TMP DP  RH WIND       PRES   REMARKS
BURLINGTON     CLOUDY    56  52  86 S14       29.72F
FAIRFIELD *    CLOUDY    55  52  88 S16       29.65F
FORT MADISON * CLOUDY    57  54  88 S8        29.72S
KEOKUK *       CLOUDY    59  54  82 S15G24    29.71R
CENTERVILLE *    N/A     59  55  88 S15       29.65F
OTTUMWA        PTSUNNY   56  54  93 S12       29.64S
WASHINGTON *   CLOUDY    54  52  94 SE13      29.68F
$$

ABBREVIATIONS USED IN REMARKS
   TC - TEMPERATURES IN CELSIUS
  WCI - WIND CHILL INDEX
   HX - HEAT INDEX
  VSB - VISIBILITY
$$




USA.gov is the U.S. government's official web portal to all federal, state and local government web resources and services.